Time,TemperatureF,DewpointF,PressureIn,WindDirection,WindDirectionDegrees,WindSpeedMPH,WindSpeedGustMPH,Humidity,HourlyPrecipIn,Conditions,Clouds,dailyrainin,SolarRadiationWatts/m^2,SoftwareType,DateUTC
2013-06-08 00:01:00,54.9,54.0,29.80,NE,52,4.0,18.0,97,0.12,,,0.00,0,weatherlink.com 1.10,2013-06-08 04:01:00,
2013-06-08 00:31:00,54.9,54.0,29.79,NNE,32,7.0,16.0,97,0.03,,,0.00,0,weatherlink.com 1.10,2013-06-08 04:31:00,
2013-06-08 00:46:00,54.8,54.0,29.77,NNE,27,8.0,20.0,97,0.03,,,0.02,0,weatherlink.com 1.10,2013-06-08 04:46:00,
2013-06-08 01:01:00,54.8,54.0,29.77,NE,46,14.0,17.0,97,0.08,,,0.08,0,weatherlink.com 1.10,2013-06-08 05:01:00,
2013-06-08 01:16:00,54.8,54.0,29.76,NE,37,5.0,17.0,97,0.10,,,0.10,0,weatherlink.com 1.10,2013-06-08 05:16:00,
2013-06-08 01:31:00,54.7,54.0,29.75,NNE,32,11.0,16.0,97,0.14,,,0.14,0,weatherlink.com 1.10,2013-06-08 05:31:00,
2013-06-08 01:46:00,54.7,54.0,29.75,NE,38,7.0,17.0,97,0.11,,,0.14,0,weatherlink.com 1.10,2013-06-08 05:46:00,
2013-06-08 02:01:00,54.6,54.0,29.72,NE,34,7.0,15.0,97,0.07,,,0.15,0,weatherlink.com 1.10,2013-06-08 06:01:00,
2013-06-08 02:16:00,54.5,54.0,29.72,North,5,3.0,18.0,97,0.05,,,0.15,0,weatherlink.com 1.10,2013-06-08 06:16:00,
2013-06-08 02:31:00,54.5,54.0,29.72,NNE,19,4.0,14.0,97,0.03,,,0.17,0,weatherlink.com 1.10,2013-06-08 06:31:00,
2013-06-08 02:46:00,54.6,54.0,29.70,North,10,11.0,14.0,97,0.04,,,0.18,0,weatherlink.com 1.10,2013-06-08 06:46:00,
2013-06-08 03:02:00,54.6,54.0,29.69,NE,36,9.0,18.0,97,0.05,,,0.20,0,weatherlink.com 1.10,2013-06-08 07:02:00,
2013-06-08 03:16:00,54.7,54.0,29.68,NE,34,2.0,16.0,97,0.13,,,0.28,0,weatherlink.com 1.10,2013-06-08 07:16:00,
2013-06-08 03:32:00,54.8,54.0,29.67,NE,36,11.0,17.0,97,0.12,,,0.30,0,weatherlink.com 1.10,2013-06-08 07:32:00,
2013-06-08 03:47:00,54.8,54.0,29.67,NNE,25,12.0,16.0,97,0.12,,,0.30,0,weatherlink.com 1.10,2013-06-08 07:47:00,
2013-06-08 04:02:00,55.0,54.0,29.66,NNE,19,4.0,14.0,97,0.11,,,0.31,0,weatherlink.com 1.10,2013-06-08 08:02:00,
2013-06-08 04:17:00,55.0,54.0,29.66,NNE,30,2.0,13.0,97,0.03,,,0.31,0,weatherlink.com 1.10,2013-06-08 08:17:00,
2013-06-08 04:32:00,55.0,54.0,29.64,NNE,13,10.0,11.0,97,0.02,,,0.32,0,weatherlink.com 1.10,2013-06-08 08:32:00,
2013-06-08 04:47:00,55.0,54.0,29.63,NNE,22,3.0,15.0,97,0.02,,,0.32,0,weatherlink.com 1.10,2013-06-08 08:47:00,
2013-06-08 05:02:00,55.0,54.0,29.62,NNE,26,17.0,17.0,97,0.01,,,0.32,0,weatherlink.com 1.10,2013-06-08 09:02:00,
2013-06-08 05:17:00,55.1,54.0,29.62,NE,39,8.0,15.0,97,0.01,,,0.32,0,weatherlink.com 1.10,2013-06-08 09:17:00,
2013-06-08 05:32:00,54.9,54.0,29.61,NNE,29,1.0,13.0,97,0.01,,,0.33,0,weatherlink.com 1.10,2013-06-08 09:32:00,
2013-06-08 05:47:00,54.8,54.0,29.61,NNE,13,2.0,10.0,97,0.07,,,0.39,7,weatherlink.com 1.10,2013-06-08 09:47:00,
2013-06-08 06:02:00,54.7,54.0,29.61,NNE,25,7.0,17.0,97,0.08,,,0.40,7,weatherlink.com 1.10,2013-06-08 10:02:00,
2013-06-08 06:17:00,54.4,54.0,29.60,NNE,15,7.0,15.0,97,0.09,,,0.41,9,weatherlink.com 1.10,2013-06-08 10:17:00,
2013-06-08 06:32:00,54.4,54.0,29.59,North,5,10.0,16.0,97,0.09,,,0.42,37,weatherlink.com 1.10,2013-06-08 10:32:00,
2013-06-08 06:47:00,54.4,54.0,29.59,North,5,1.0,17.0,97,0.03,,,0.42,40,weatherlink.com 1.10,2013-06-08 10:47:00,
2013-06-08 07:02:00,54.6,54.0,29.58,NNW,346,3.0,17.0,97,0.02,,,0.42,51,weatherlink.com 1.10,2013-06-08 11:02:00,
2013-06-08 07:17:00,54.9,54.0,29.59,North,9,8.0,14.0,97,0.01,,,0.42,40,weatherlink.com 1.10,2013-06-08 11:17:00,
2013-06-08 07:32:00,55.1,54.0,29.59,NW,323,1.0,16.0,97,0.00,,,0.42,51,weatherlink.com 1.10,2013-06-08 11:32:00,
2013-06-08 07:47:00,55.2,54.0,29.60,NNW,339,2.0,17.0,97,0.00,,,0.42,30,weatherlink.com 1.10,2013-06-08 11:47:00,
2013-06-08 08:02:00,55.6,55.0,29.61,NNW,336,2.0,17.0,97,0.00,,,0.42,135,weatherlink.com 1.10,2013-06-08 12:02:00,
2013-06-08 08:17:00,55.9,55.0,29.61,North,355,10.0,15.0,97,0.00,,,0.42,135,weatherlink.com 1.10,2013-06-08 12:17:00,
2013-06-08 08:32:00,56.5,56.0,29.62,NW,319,9.0,19.0,97,0.00,,,0.42,148,weatherlink.com 1.10,2013-06-08 12:32:00,
2013-06-08 08:47:00,56.7,56.0,29.64,NW,323,9.0,18.0,97,0.00,,,0.42,155,weatherlink.com 1.10,2013-06-08 12:47:00,
2013-06-08 09:02:00,56.9,56.0,29.66,WNW,288,8.0,15.0,97,0.00,,,0.42,116,weatherlink.com 1.10,2013-06-08 13:02:00,
2013-06-08 09:17:00,57.1,56.0,29.68,WNW,302,3.0,14.0,97,0.00,,,0.42,86,weatherlink.com 1.10,2013-06-08 13:17:00,
2013-06-08 09:32:00,57.6,57.0,29.68,NW,309,12.0,18.0,97,0.00,,,0.42,320,weatherlink.com 1.10,2013-06-08 13:32:00,
2013-06-08 09:47:00,58.8,58.0,29.69,WNW,291,13.0,15.0,97,0.00,,,0.42,383,weatherlink.com 1.10,2013-06-08 13:47:00,
2013-06-08 10:02:00,59.2,58.0,29.70,NW,306,2.0,16.0,96,0.00,,,0.42,357,weatherlink.com 1.10,2013-06-08 14:02:00,
2013-06-08 10:17:00,60.0,58.0,29.71,WNW,294,2.0,17.0,94,0.00,,,0.42,357,weatherlink.com 1.10,2013-06-08 14:17:00,
2013-06-08 10:33:00,60.9,58.0,29.71,NNW,340,5.0,15.0,91,0.00,,,0.42,408,weatherlink.com 1.10,2013-06-08 14:33:00,
2013-06-08 10:48:00,61.8,58.0,29.73,NNW,336,5.0,19.0,88,0.00,,,0.42,311,weatherlink.com 1.10,2013-06-08 14:48:00,
2013-06-08 11:03:00,62.7,59.0,29.74,NW,325,3.0,17.0,88,0.00,,,0.42,615,weatherlink.com 1.10,2013-06-08 15:03:00,
2013-06-08 11:18:00,63.6,59.0,29.76,WNW,295,3.0,14.0,85,0.00,,,0.42,341,weatherlink.com 1.10,2013-06-08 15:18:00,
2013-06-08 11:33:00,64.7,60.0,29.77,West,269,3.0,15.0,84,0.00,,,0.42,339,weatherlink.com 1.10,2013-06-08 15:33:00,
2013-06-08 11:48:00,66.1,61.0,29.78,West,263,2.0,13.0,82,0.00,,,0.42,404,weatherlink.com 1.10,2013-06-08 15:48:00,
2013-06-08 12:03:00,67.4,62.0,29.77,WNW,294,3.0,11.0,82,0.00,,,0.42,350,weatherlink.com 1.10,2013-06-08 16:03:00,
2013-06-08 12:18:00,68.7,62.0,29.78,West,263,1.0,13.0,79,0.00,,,0.42,264,weatherlink.com 1.10,2013-06-08 16:18:00,
2013-06-08 12:33:00,69.9,63.0,29.78,West,271,4.0,15.0,79,0.00,,,0.42,292,weatherlink.com 1.10,2013-06-08 16:33:00,
2013-06-08 12:48:00,70.8,63.0,29.79,WSW,246,7.0,17.0,77,0.00,,,0.42,258,weatherlink.com 1.10,2013-06-08 16:48:00,
2013-06-08 13:03:00,71.8,64.0,29.79,West,273,10.0,16.0,75,0.00,,,0.42,246,weatherlink.com 1.10,2013-06-08 17:03:00,
2013-06-08 13:18:00,72.3,63.0,29.79,WNW,286,4.0,17.0,72,0.00,,,0.42,274,weatherlink.com 1.10,2013-06-08 17:18:00,
2013-06-08 13:33:00,73.4,63.0,29.80,WNW,294,1.0,18.0,71,0.00,,,0.42,255,weatherlink.com 1.10,2013-06-08 17:33:00,
2013-06-08 13:48:00,74.9,65.0,29.80,WNW,292,2.0,14.0,71,0.00,,,0.42,67,weatherlink.com 1.10,2013-06-08 17:48:00,
2013-06-08 14:03:00,75.5,64.0,29.80,WSW,238,3.0,14.0,68,0.00,,,0.42,188,weatherlink.com 1.10,2013-06-08 18:03:00,
2013-06-08 14:18:00,76.5,65.0,29.81,West,273,4.0,17.0,68,0.00,,,0.42,294,weatherlink.com 1.10,2013-06-08 18:18:00,
2013-06-08 14:33:00,77.5,65.0,29.81,West,271,14.0,17.0,65,0.00,,,0.42,172,weatherlink.com 1.10,2013-06-08 18:33:00,
2013-06-08 14:48:00,77.4,66.0,29.81,West,265,8.0,13.0,67,0.00,,,0.42,188,weatherlink.com 1.10,2013-06-08 18:48:00,
2013-06-08 15:03:00,77.8,66.0,29.81,West,267,6.0,14.0,66,0.00,,,0.42,142,weatherlink.com 1.10,2013-06-08 19:03:00,
2013-06-08 15:18:00,78.3,66.0,29.81,WSW,237,5.0,16.0,65,0.00,,,0.42,128,weatherlink.com 1.10,2013-06-08 19:18:00,
2013-06-08 15:34:00,78.5,66.0,29.82,SW,228,9.0,16.0,65,0.00,,,0.42,200,weatherlink.com 1.10,2013-06-08 19:34:00,
2013-06-08 15:49:00,78.4,65.0,29.82,WSW,252,6.0,14.0,64,0.00,,,0.42,151,weatherlink.com 1.10,2013-06-08 19:49:00,
2013-06-08 16:04:00,78.2,65.0,29.82,WSW,239,4.0,17.0,65,0.00,,,0.42,209,weatherlink.com 1.10,2013-06-08 20:04:00,
2013-06-08 16:19:00,79.0,66.0,29.83,WSW,255,12.0,15.0,64,0.00,,,0.42,84,weatherlink.com 1.10,2013-06-08 20:19:00,
2013-06-08 16:34:00,78.8,66.0,29.83,WSW,250,3.0,17.0,64,0.00,,,0.42,58,weatherlink.com 1.10,2013-06-08 20:34:00,
2013-06-08 16:49:00,78.7,66.0,29.83,WSW,240,9.0,17.0,65,0.00,,,0.42,58,weatherlink.com 1.10,2013-06-08 20:49:00,
2013-06-08 17:04:00,78.9,67.0,29.84,WSW,257,3.0,13.0,67,0.00,,,0.42,67,weatherlink.com 1.10,2013-06-08 21:04:00,
2013-06-08 17:19:00,78.6,66.0,29.84,WSW,247,4.0,13.0,66,0.00,,,0.42,105,weatherlink.com 1.10,2013-06-08 21:19:00,
2013-06-08 17:34:00,78.4,66.0,29.84,WSW,254,1.0,11.0,66,0.00,,,0.42,123,weatherlink.com 1.10,2013-06-08 21:34:00,
2013-06-08 17:49:00,78.2,65.0,29.86,WSW,247,4.0,11.0,65,0.00,,,0.42,63,weatherlink.com 1.10,2013-06-08 21:49:00,
2013-06-08 18:04:00,77.7,65.0,29.84,West,263,1.0,11.0,66,0.00,,,0.42,107,weatherlink.com 1.10,2013-06-08 22:04:00,
2013-06-08 18:19:00,77.3,65.0,29.86,WNW,292,5.0,16.0,65,0.00,,,0.42,56,weatherlink.com 1.10,2013-06-08 22:19:00,
2013-06-08 18:34:00,76.7,64.0,29.87,West,274,4.0,20.0,66,0.00,,,0.42,56,weatherlink.com 1.10,2013-06-08 22:34:00,
2013-06-08 18:49:00,76.1,65.0,29.88,NW,323,15.0,16.0,68,0.00,,,0.42,77,weatherlink.com 1.10,2013-06-08 22:49:00,
2013-06-08 19:04:00,75.3,64.0,29.89,WSW,250,3.0,18.0,68,0.00,,,0.42,30,weatherlink.com 1.10,2013-06-08 23:04:00,
2013-06-08 19:19:00,74.4,64.0,29.90,WSW,254,4.0,13.0,69,0.00,,,0.42,28,weatherlink.com 1.10,2013-06-08 23:19:00,
2013-06-08 19:34:00,73.8,63.0,29.91,West,269,4.0,20.0,70,0.00,,,0.42,25,weatherlink.com 1.10,2013-06-08 23:34:00,
2013-06-08 19:49:00,73.1,62.0,29.91,NW,308,3.0,12.0,69,0.00,,,0.42,11,weatherlink.com 1.10,2013-06-08 23:49:00,
2013-06-08 20:04:00,72.5,61.0,29.91,NW,306,4.0,14.0,68,0.00,,,0.42,5,weatherlink.com 1.10,2013-06-09 00:04:00,
2013-06-08 20:19:00,72.0,61.0,29.91,WNW,297,0.0,12.0,69,0.00,,,0.42,0,weatherlink.com 1.10,2013-06-09 00:19:00,
2013-06-08 20:34:00,71.4,61.0,29.92,NW,306,0.0,10.0,69,0.00,,,0.42,0,weatherlink.com 1.10,2013-06-09 00:34:00,
2013-06-08 20:49:00,70.8,61.0,29.93,WNW,300,0.0,6.0,70,0.00,,,0.42,0,weatherlink.com 1.10,2013-06-09 00:49:00,
2013-06-08 21:04:00,70.1,61.0,29.94,WNW,289,4.0,8.0,72,0.00,,,0.42,0,weatherlink.com 1.10,2013-06-09 01:04:00,
2013-06-08 21:19:00,69.5,61.0,29.95,West,267,3.0,7.0,73,0.00,,,0.42,0,weatherlink.com 1.10,2013-06-09 01:19:00,
2013-06-08 21:34:00,69.0,60.0,29.96,West,265,3.0,10.0,74,0.00,,,0.42,0,weatherlink.com 1.10,2013-06-09 01:34:00,
2013-06-08 21:49:00,68.8,61.0,29.96,West,268,0.0,9.0,75,0.00,,,0.42,0,weatherlink.com 1.10,2013-06-09 01:49:00,
2013-06-08 22:04:00,68.5,60.0,29.96,West,277,0.0,7.0,75,0.00,,,0.42,0,weatherlink.com 1.10,2013-06-09 02:04:00,
2013-06-08 22:19:00,68.1,60.0,29.96,West,276,0.0,6.0,76,0.00,,,0.42,0,weatherlink.com 1.10,2013-06-09 02:19:00,
2013-06-08 22:34:00,67.6,60.0,29.96,West,276,0.0,3.0,77,0.00,,,0.42,0,weatherlink.com 1.10,2013-06-09 02:34:00,
2013-06-08 22:49:00,67.3,60.0,29.97,West,268,0.0,9.0,78,0.00,,,0.42,0,weatherlink.com 1.10,2013-06-09 02:49:00,
2013-06-08 23:04:00,66.9,60.0,29.97,West,263,2.0,8.0,79,0.00,,,0.42,0,weatherlink.com 1.10,2013-06-09 03:04:00,
2013-06-08 23:19:00,66.7,60.0,29.98,West,269,0.0,9.0,79,0.00,,,0.42,0,weatherlink.com 1.10,2013-06-09 03:19:00,
2013-06-08 23:34:00,66.5,60.0,29.98,West,267,0.0,9.0,80,0.00,,,0.42,0,weatherlink.com 1.10,2013-06-09 03:34:00,
2013-06-08 23:49:00,66.3,60.0,29.99,West,269,2.0,9.0,80,0.00,,,0.42,0,weatherlink.com 1.10,2013-06-09 03:49:00,